BREEZE-M DEB, 38597

Orbit data source: Space-Track

BREEZE-M DEB, 38597 is space debris in HEO originally from a launch on Fri, 14 Mar 2008 UTC launched from the Tyuratam Missile And Space Complex (TTMTR). Debris objects in space refer to the collection of defunct objects orbiting the Earth. Examples of debris include non-operational satellites, rocket bodies, and fragments generated from explosions, collisions, or faulty payload assembly.

Loading next visibility...
Identifier
38597, 2008-011AU
Orbit
HEO
Country
Flag of CISCIS
Related business
Manufacturer
Unknown
Mission
Spacecraft
Bus & Motor
Unknown
Mass
Unknown
Launch date (UTC)
2008-03-14 (18 years ago)
Launch vehicle
Unknown
Launch site
Tyuratam Missile And Space Complex (TTMTR)
Object type
Payload
Rocket body
Debris
Shape & HBR
Unknown shape, 0.3 m
Radar Cross Section
Medium (>0.1 m² and <1 m²)

Expand to show TLE details & history
Last TLE update: 2 days ago

TLE from 2 days ago
0 BREEZE-M DEB
1 38597U 08011AU  26171.30026958  .00008245  00000-0  50939-1 0  9998
2 38597  48.9002 322.8241 5969379 194.0704 136.7341  3.80678175 32096
Epoch: 2026-06-20T07:12Z
TLE epoch observation values (Epoch: 2026-06-20T07:12:23.291Z)
Latitude
0.00001°
Longitude
-53.7976°
Altitude
20,118.826 km
Speed
2.661 km/s
True Right ascension
21h 31m 15s
True Declination
0° 00' 00"
Sunlit
Object was in daylight at epoch
Visualization orbit readout
Latitude
Unknown
Longitude
Unknown
Altitude
Unknown
Speed
Unknown
Apparent Right ascension
Unknown
Apparent Declination
Unknown
Sunlit
N/A
Visualization observer readout
Local Sidereal Time
23:09:07
Azimuth
Unknown
Elevation
Unknown
Doppler factor
Unknown
Orbital elements
Apogee altitude
21,291.477 km
Perigee altitude
605.587 km
Semi-major axis
17,326.669 km
Eccentricity
0.59694
Inclination
48.9002°
RAAN
322.8241°
Arg. of periapsis
194.0704°
True anomaly
165.9923°
Mean anomaly
136.7341°
Eccentric anomaly
152.51755°
Mean motion
0.95164 °/min
Orbital period
378.3 mins
BSTAR
0.050939
Loading maneuver chart data...
Computing Atmospheric mass density...
Loading historical data...
Loading historical data...
Loading historical data...
Loading historical data...
Loading historical data...
Loading historical data...
Loading historical data...

Documentation

Showing up to 5 results
|